[[{"header":{"parameterUnit":"m.s-1","parameterCategory":1,"la1":30.2992,"la2":30.254,"lo1":-89.0895,"lo2":-89.0443,"dy":0.0025,"dx":0.0025,"nx":19,"ny":19,"refTime":"2026-05-02T21:00:00:Z","depth":0,"parameterNumber":2,"parameterNumberName":"U-component_of_WINDS"},"data":[0,0,0,-0.3231,-0.3232,-0.3292,-0.3292,-0.3375,-0.3376,0,0,0,0,0,0,0,0,0,0,0,-0.3217,-0.3217,-0.3231,-0.3232,-0.3292,-0.3292,-0.3375,-0.3376,0,0,0,0,0,0,0,0,0,0,0,-0.3216,-0.3217,-0.3218,-0.3233,-0.3292,-0.3292,-0.3374,-0.3327,0,0,0,0,0,0,0,0,0,0,-0.3268,-0.3258,-0.3217,-0.3218,-0.3233,-0.3292,-0.3292,-0.3325,-0.333,-0.335,0,-0.3368,0,-0.3373,-0.3381,-0.3382,0,0,0,-0.3231,-0.3254,-0.3267,-0.3218,-0.3234,-0.3292,-0.3265,-0.3328,-0.3334,-0.3357,-0.3369,-0.3372,-0.3374,-0.3382,-0.3382,-0.35,-0.3501,0,0,-0.3227,-0.3229,-0.3263,-0.3271,-0.3261,-0.3263,-0.3267,-0.3332,-0.3345,-0.3369,-0.3374,-0.3376,-0.3383,-0.3383,-0.35,-0.35,0,0,0,-0.3219,-0.3227,-0.3238,-0.3267,-0.3278,-0.3265,-0.3269,-0.3342,-0.3346,-0.3375,-0.3377,-0.3383,-0.3384,-0.3499,-0.35,-0.3534,0,0,0,-0.3217,-0.3222,-0.3237,-0.3239,-0.3277,-0.3311,-0.3278,-0.3341,-0.3348,-0.3376,-0.3383,-0.3385,-0.3498,-0.3499,-0.3531,-0.355,0,0,0,-0.3212,-0.3222,-0.3231,-0.3239,-0.3265,-0.3309,-0.3317,-0.3343,-0.335,-0.3382,-0.3385,-0.3498,-0.3499,-0.3529,-0.3547,-0.3582,0,0,0,-0.3207,-0.3262,-0.3232,-0.3294,-0.3264,-0.3329,-0.3316,-0.3365,-0.3396,-0.3384,-0.3498,-0.35,-0.3529,-0.3545,-0.358,-0.3613,-0.3627,0,0,-0.3277,-0.327,-0.3306,-0.3281,-0.3352,-0.332,-0.3396,-0.3424,-0.3425,-0.3475,-0.3478,-0.3532,-0.3547,-0.3582,-0.3701,-0.3712,0,0,0,-0.3329,-0.3355,-0.3374,-0.3403,-0.3424,-0.3444,-0.3459,-0.3468,-0.351,-0.3451,-0.3554,-0.3562,-0.3583,-0.3599,-0.3608,-0.3626,-0.3507,-0.3507,-0.3507,-0.3434,-0.3431,-0.3491,-0.3495,-0.3523,-0.3537,-0.356,-0.3575,-0.3566,-0.359,-0.3606,-0.3678,-0.3697,-0.3704,-0.3722,-0.3622,-0.3622,-0.3622,-0.3622,-0.3538,-0.3575,-0.3558,-0.3609,-0.3606,-0.365,-0.3664,-0.3655,-0.3696,-0.3666,-0.3684,-0.3654,-0.3716,-0.3732,-0.3624,-0.3624,-0.3624,-0.3623,-0.3623,-0.3608,-0.3625,-0.3634,-0.3675,-0.3706,-0.3708,-0.3747,-0.3743,-0.3739,-0.3756,-0.3772,-0.3772,-0.3772,-0.3764,-0.3764,-0.3764,-0.3765,-0.3765,-0.3765,-0.3677,-0.3686,-0.3719,-0.3744,-0.3761,-0.3784,-0.3796,-0.3813,-0.3831,-0.3825,-0.3825,-0.3813,-0.3721,-0.3699,-0.3769,-0.3768,-0.3768,-0.3767,-0.3767,-0.3786,-0.376,-0.3811,-0.3828,-0.3856,-0.3888,-0.388,-0.3915,-0.3928,-0.3947,-0.393,-0.3863,-0.3856,-0.3849,-0.3831,-0.393,-0.393,-0.393,-0.393,-0.3846,-0.3841,-0.3891,-0.3919,-0.3945,-0.3943,-0.4,-0.4009,-0.4015,-0.4023,-0.4008,-0.3982,-0.3975,-0.3972,-0.3962,-0.3945,-0.4072,-0.4072,-0.4072,-0.3914,-0.391,-0.3961,-0.3965,-0.3985,-0.4003,-0.4057,-0.409,-0.4091,-0.4078,-0.4029,-0.4023,-0.3983,-0.3969,-0.3958,-0.3943,-0.3911,0,0]},{"header":{"parameterUnit":"m.s-1","parameterCategory":1,"la1":30.2992,"la2":30.254,"lo1":-89.0895,"lo2":-89.0443,"dy":0.0025,"dx":0.0025,"nx":19,"ny":19,"refTime":"2026-05-02T21:00:00:Z","depth":0,"parameterNumber":3,"parameterNumberName":"V-component_of_WINDS"},"data":[0,0,0,-6.8608,-6.8613,-6.8838,-6.8839,-6.914,-6.9143,0,0,0,0,0,0,0,0,0,0,0,-6.8551,-6.8554,-6.8607,-6.8613,-6.8838,-6.8839,-6.914,-6.9143,0,0,0,0,0,0,0,0,0,0,0,-6.855,-6.8553,-6.8556,-6.8614,-6.8838,-6.8839,-6.9139,-6.8964,0,0,0,0,0,0,0,0,0,0,-6.8743,-6.8702,-6.8552,-6.8556,-6.8615,-6.8838,-6.8839,-6.8955,-6.8975,-6.9045,0,-6.9112,0,-6.9133,-6.9164,-6.9166,0,0,0,-6.8605,-6.8686,-6.8737,-6.8557,-6.8617,-6.8837,-6.8734,-6.8966,-6.8988,-6.9071,-6.9116,-6.9127,-6.9138,-6.9167,-6.9168,-6.9605,-6.9607,0,0,-6.8592,-6.8597,-6.8722,-6.8752,-6.872,-6.8727,-6.8741,-6.8979,-6.9028,-6.9117,-6.9134,-6.9143,-6.9169,-6.9171,-6.9603,-6.9606,0,0,0,-6.8562,-6.8589,-6.8634,-6.874,-6.878,-6.8734,-6.875,-6.9017,-6.9032,-6.9137,-6.9146,-6.917,-6.9174,-6.96,-6.9604,-6.973,0,0,0,-6.8554,-6.8571,-6.8629,-6.8634,-6.8776,-6.8902,-6.8783,-6.9015,-6.9042,-6.9145,-6.9171,-6.9177,-6.9598,-6.9602,-6.9721,-6.9789,0,0,0,-6.8533,-6.8569,-6.8605,-6.8634,-6.8731,-6.8898,-6.8926,-6.9021,-6.9048,-6.9166,-6.9178,-6.9596,-6.9601,-6.9713,-6.9776,-6.9906,0,0,0,-6.8511,-6.8714,-6.8607,-6.8836,-6.873,-6.8975,-6.8924,-6.9106,-6.9222,-6.9172,-6.9598,-6.9604,-6.971,-6.9767,-6.9897,-7.0017,-7.0068,0,0,-6.8769,-6.8745,-6.8879,-6.8791,-6.9057,-6.894,-6.9224,-6.9324,-6.9329,-6.9512,-6.9523,-6.9724,-6.9775,-6.9904,-7.0348,-7.0388,0,0,0,-6.8962,-6.9059,-6.9128,-6.924,-6.9323,-6.9398,-6.9455,-6.9492,-6.9647,-6.9425,-6.9806,-6.9836,-6.9912,-6.9969,-7.0003,-7.0067,-6.963,-6.9629,-6.9629,-6.9335,-6.9332,-6.9554,-6.9579,-6.9687,-6.9743,-6.983,-6.9889,-6.9854,-6.9944,-6.9998,-7.0268,-7.0335,-7.036,-7.0428,-7.0061,-7.0061,-7.0062,-7.0062,-6.9713,-6.9849,-6.9798,-6.9995,-6.999,-7.0154,-7.0215,-7.0184,-7.0336,-7.0226,-7.0293,-7.0175,-7.0405,-7.0463,-7.0071,-7.007,-7.0069,-7.0068,-7.0067,-6.9957,-7.0022,-7.0064,-7.0225,-7.0348,-7.0364,-7.0512,-7.0502,-7.0493,-7.0558,-7.0615,-7.0613,-7.0609,-7.0586,-7.0587,-7.0588,-7.0589,-7.0589,-7.059,-7.0194,-7.0238,-7.0365,-7.0469,-7.0539,-7.0629,-7.0687,-7.0754,-7.0826,-7.0807,-7.0807,-7.0762,-7.0428,-7.0344,-7.0604,-7.0602,-7.06,-7.0599,-7.0598,-7.0579,-7.049,-7.0687,-7.0757,-7.0878,-7.1001,-7.0985,-7.1124,-7.1178,-7.1251,-7.1192,-7.0946,-7.092,-7.0893,-7.0823,-7.1192,-7.1192,-7.1192,-7.1192,-7.0786,-7.0772,-7.097,-7.1083,-7.1191,-7.1197,-7.1417,-7.1463,-7.1496,-7.1529,-7.1474,-7.1381,-7.1353,-7.1343,-7.1306,-7.1241,-7.1708,-7.1709,-7.1709,-7.1023,-7.1018,-7.1209,-7.1242,-7.1335,-7.1415,-7.1621,-7.1751,-7.1769,-7.173,-7.1554,-7.1533,-7.1382,-7.1333,-7.1291,-7.1234,-7.1114,0,0]}]]